Almo, KY

7:31 AM CST on February 13, 2016 (GMT -0600)
Kyle-Oakley

Weather History for KCEY - May, 2013

Change the Weather History Date:

Monday, May 6, 2013

  Actual Average (KPAH) Record (KPAH)
Temperature  
Mean Temperature 56 °F 64 °F  
Max Temperature 62 °F 75 °F 91 °F (2012)
Min Temperature 51 °F 53 °F 35 °F (1968)
Degree Days  
Heating Degree Days 8 3  
Month to date heating degree days 21  
Since 1 July heating degree days 4085  
Cooling Degree Days 0 2  
Month to date cooling degree days 12  
Year to date cooling degree days 54  
Growing Degree Days 6 (Base 50)    
Moisture  
Dew Point 53 °F    
Average Humidity 91    
Maximum Humidity 100    
Minimum Humidity 72    
Precipitation  
Precipitation 0.00 in 0.17 in 2.39 in (1961)
Month to date precipitation 1.05  
Year to date precipitation 17.33  
Snow  
Snow 0.00 in 0.00 in - ()
Month to date snowfall 0.0  
Since 1 July snowfall 9.1  
Snow Depth -    
Sea Level Pressure  
Sea Level Pressure 29.86 in    
Wind  
Wind Speed 7 mph (North)    
Max Wind Speed 15 mph    
Max Gust Speed 22 mph    
Visibility 9 miles    
Events      
T = Trace of Precipitation, MM = Missing Value Source: NWS Daily Summary

Daily Weather History Graph

Daily Weather History Graph

Search for Another Location

Airport or City:

Trip Planner

Search our weather history database for the weather conditions in past years. The results will help you decide how hot, cold, wet, or windy it might be!

Date:

Astronomy

May. 06, 2013 Rise Set
Actual Time 5:54 AM CDT 7:46 PM CDT
Civil Twilight 5:26 AM CDT 8:14 PM CDT
Nautical Twilight 4:51 AM CDT 8:48 PM CDT
Astronomical Twilight 4:15 AM CDT 9:25 PM CDT
Moon 3:51 AM CDT (5/6) 4:50 PM CDT (5/6)
Length of Visible Light 14h 48m
Length of Day
13h 52m
Waning Crescent, 11% of the Moon is Illuminated
May 6
Waning Crescent
May 9
New
May 17
First Quarter
May 24
Full
May 31
Last Quarter

Hourly Weather History & Observations

Time (CDT) Temp. Dew Point Humidity Pressure Visibility Wind Dir Wind Speed Gust Speed Precip Events Conditions
12:15 AM 53.6 °F 51.8 °F 94% 29.85 in 10.0 mi WNW 3.5 mph - N/A   Overcast
12:35 AM 53.6 °F 51.8 °F 94% 29.84 in 10.0 mi West 6.9 mph - N/A   Overcast
12:55 AM 53.6 °F 51.8 °F 94% 29.83 in 6.0 mi WNW 5.8 mph - N/A   Overcast
1:15 AM 53.6 °F 53.6 °F 100% 29.83 in 4.0 mi NW 8.1 mph - N/A   Overcast
1:35 AM 53.6 °F 53.6 °F 100% 29.82 in 9.0 mi North 5.8 mph - N/A   Overcast
1:55 AM 53.6 °F 53.6 °F 100% 29.82 in 10.0 mi NNW 5.8 mph - N/A   Overcast
2:15 AM 53.6 °F 53.6 °F 100% 29.81 in 10.0 mi North 6.9 mph - N/A   Overcast
2:35 AM 53.6 °F 53.6 °F 100% 29.82 in 10.0 mi NNE 9.2 mph - N/A   Overcast
2:55 AM 53.6 °F 51.8 °F 94% 29.82 in 10.0 mi NNE 9.2 mph - N/A   Overcast
3:15 AM 53.6 °F 51.8 °F 94% 29.82 in 10.0 mi North 6.9 mph - N/A   Overcast
3:35 AM 53.6 °F 50.0 °F 88% 29.82 in 10.0 mi North 8.1 mph - N/A   Overcast
3:55 AM 53.6 °F 50.0 °F 88% 29.82 in 9.0 mi NNE 8.1 mph - N/A   Overcast
4:15 AM 51.8 °F 50.0 °F 94% 29.82 in 10.0 mi North 5.8 mph - N/A   Overcast
4:35 AM 51.8 °F 50.0 °F 94% 29.82 in 10.0 mi North 5.8 mph - N/A   Overcast
4:55 AM 51.8 °F 50.0 °F 94% 29.82 in 10.0 mi North 8.1 mph - N/A   Overcast
5:15 AM 53.6 °F 50.0 °F 88% 29.82 in 10.0 mi North 8.1 mph - N/A   Overcast
5:55 AM 51.8 °F 50.0 °F 94% 29.83 in 10.0 mi North 6.9 mph - N/A   Overcast
6:15 AM 51.8 °F 50.0 °F 94% 29.83 in 10.0 mi North 6.9 mph - N/A   Overcast
6:35 AM 51.8 °F 50.0 °F 94% 29.84 in 10.0 mi North 8.1 mph - N/A   Overcast
6:55 AM 51.8 °F 50.0 °F 94% 29.84 in 4.0 mi North 9.2 mph - N/A   Overcast
7:15 AM 51.8 °F 50.0 °F 94% 29.84 in 8.0 mi North 6.9 mph - N/A   Overcast
7:35 AM 51.8 °F 51.8 °F 100% 29.85 in 8.0 mi NNW 8.1 mph - N/A   Overcast
7:55 AM 51.8 °F 51.8 °F 100% 29.84 in 6.0 mi NNW 6.9 mph - N/A   Overcast
8:35 AM 53.6 °F 51.8 °F 94% 29.86 in 7.0 mi North 9.2 mph - N/A   Overcast
8:55 AM 53.6 °F 51.8 °F 94% 29.86 in 10.0 mi NNW 10.4 mph - N/A   Overcast
9:15 AM 53.6 °F 51.8 °F 94% 29.86 in 10.0 mi NNW 9.2 mph - N/A   Overcast
9:35 AM 55.4 °F 51.8 °F 88% 29.85 in 10.0 mi North 10.4 mph - N/A   Overcast
9:55 AM 55.4 °F 53.6 °F 94% 29.85 in 10.0 mi NNW 9.2 mph - N/A   Overcast
10:15 AM 55.4 °F 53.6 °F 94% 29.85 in 10.0 mi NNW 11.5 mph - N/A   Overcast
10:35 AM 55.4 °F 53.6 °F 94% 29.86 in 10.0 mi North 13.8 mph - N/A   Overcast
10:55 AM 55.4 °F 53.6 °F 94% 29.87 in 10.0 mi North 12.7 mph 17.3 mph N/A   Overcast
11:15 AM 55.4 °F 53.6 °F 94% 29.87 in 9.0 mi North 8.1 mph - N/A   Overcast
11:35 AM 57.2 °F 53.6 °F 88% 29.87 in 10.0 mi North 10.4 mph - N/A   Overcast
11:55 AM 57.2 °F 53.6 °F 88% 29.87 in 10.0 mi North 9.2 mph 16.1 mph N/A   Overcast
12:15 PM 57.2 °F 53.6 °F 88% 29.87 in 10.0 mi North 12.7 mph 16.1 mph N/A   Overcast
12:35 PM 57.2 °F 55.4 °F 94% 29.87 in 6.0 mi North 11.5 mph - N/A   Mostly Cloudy
12:55 PM 57.2 °F 55.4 °F 94% 29.87 in 2.5 mi North 11.5 mph - N/A   Mostly Cloudy
1:15 PM 59.0 °F 55.4 °F 88% 29.86 in 10.0 mi North 15.0 mph 21.9 mph N/A   Mostly Cloudy
1:35 PM 60.8 °F 55.4 °F 82% 29.86 in 10.0 mi North 11.5 mph 19.6 mph N/A   Mostly Cloudy
1:55 PM 62.6 °F 53.6 °F 72% 29.86 in 10.0 mi North 12.7 mph 19.6 mph N/A   Overcast
2:15 PM 62.6 °F 53.6 °F 72% 29.86 in 10.0 mi North 11.5 mph 17.3 mph N/A   Mostly Cloudy
2:35 PM 62.6 °F 53.6 °F 72% 29.86 in 10.0 mi North 11.5 mph 17.3 mph N/A   Mostly Cloudy
2:55 PM 62.6 °F 53.6 °F 72% 29.87 in 10.0 mi NE 10.4 mph - N/A   Mostly Cloudy
3:15 PM 59.0 °F 55.4 °F 88% 29.86 in 8.0 mi East 5.8 mph - N/A   Mostly Cloudy
3:35 PM 59.0 °F 53.6 °F 82% 29.86 in 10.0 mi NE 9.2 mph - N/A   Mostly Cloudy
3:55 PM 59.0 °F 53.6 °F 82% 29.86 in 10.0 mi NNE 8.1 mph - N/A   Overcast
4:15 PM 59.0 °F 51.8 °F 77% 29.86 in 10.0 mi North 5.8 mph - N/A   Overcast
4:35 PM 59.0 °F 50.0 °F 72% 29.86 in 10.0 mi North 4.6 mph - N/A   Mostly Cloudy
4:55 PM 59.0 °F 51.8 °F 77% 29.87 in 10.0 mi NNW 5.8 mph - N/A   Mostly Cloudy
5:15 PM 59.0 °F 53.6 °F 82% 29.87 in 10.0 mi NW 6.9 mph - N/A   Mostly Cloudy
5:35 PM 57.2 °F 53.6 °F 88% 29.87 in 10.0 mi NW 6.9 mph - N/A   Mostly Cloudy
5:55 PM 57.2 °F 53.6 °F 88% 29.87 in 10.0 mi NW 8.1 mph - N/A   Mostly Cloudy
6:15 PM 57.2 °F 53.6 °F 88% 29.88 in 10.0 mi NW 6.9 mph - N/A   Mostly Cloudy
6:35 PM 57.2 °F 53.6 °F 88% 29.89 in 10.0 mi NW 9.2 mph - N/A   Scattered Clouds
6:55 PM 57.2 °F 53.6 °F 88% 29.89 in 10.0 mi NNW 4.6 mph - N/A   Mostly Cloudy
7:15 PM 57.2 °F 53.6 °F 88% 29.89 in 10.0 mi NNW 3.5 mph - N/A   Overcast
7:55 PM 57.2 °F 53.6 °F 88% 29.90 in 10.0 mi NW 6.9 mph - N/A   Overcast
8:15 PM 55.4 °F 55.4 °F 100% 29.91 in 10.0 mi NW 8.1 mph - N/A   Mostly Cloudy
8:35 PM 55.4 °F 55.4 °F 100% 29.91 in 10.0 mi NNW 6.9 mph - N/A   Overcast
8:55 PM 57.2 °F 55.4 °F 94% 29.92 in 10.0 mi NNW 6.9 mph - N/A   Overcast
9:15 PM 57.2 °F 55.4 °F 94% 29.93 in 10.0 mi North 8.1 mph - N/A   Overcast
9:35 PM 57.2 °F 55.4 °F 94% 29.93 in 10.0 mi North 5.8 mph - N/A   Overcast
9:55 PM 57.2 °F 55.4 °F 94% 29.93 in 10.0 mi North 5.8 mph - N/A   Scattered Clouds
10:15 PM 55.4 °F 55.4 °F 100% 29.93 in 10.0 mi NNW 5.8 mph - N/A   Mostly Cloudy
10:35 PM 55.4 °F 55.4 °F 100% 29.93 in 10.0 mi North 3.5 mph - N/A   Scattered Clouds
11:15 PM 55.4 °F 55.4 °F 100% 29.93 in 10.0 mi NNW 5.8 mph - N/A   Partly Cloudy
11:35 PM 55.4 °F 55.4 °F 100% 29.93 in 10.0 mi North 4.6 mph - N/A   Partly Cloudy
11:55 PM 55.4 °F 55.4 °F 100% 29.93 in 8.0 mi North 5.8 mph - N/A   Clear